GFSGBSN_500_rhum_012.txt.gz
RH
10 10 11 12 16 24 58 64 22 27 38 36 37 42 44 43 46 42 48 50 54 72 71 66 49 36 26 44 45 30 22 24 51 20 31 59 96 99 98 92 88 81 77 76 70 66 60
10 11 11 13 11 15 56 54 18 30 37 32 42 46 54 50 49 49 40 57 57 63 73 73 70 55 54 37 30 21 27 35 25 33 49 66 84 96 88 85 83 81 51 40 59 61 10
12 11 12 12 5 11 56 35 16 34 35 43 56 52 56 42 45 44 56 61 61 74 76 73 62 48 20 24 28 31 52 21 40 52 70 45 45 80 75 70 69 58 6 9 20 14 10
13 14 12 9 7 26 50 18 21 34 31 54 66 54 58 50 42 68 68 72 77 76 72 25 9 14 20 52 40 60 20 17 16 28 55 62 55 63 64 44 22 11 8 23 20 17 15
15 16 11 7 30 45 44 16 28 26 39 50 41 59 53 48 80 80 85 84 66 19 17 22 24 26 30 31 22 17 15 13 12 36 59 40 49 64 39 34 84 59 20 42 29 49 26
16 16 11 7 36 53 28 18 26 27 43 29 46 71 52 72 88 93 85 28 14 25 29 32 34 33 24 20 18 19 17 17 21 38 23 48 59 54 54 65 75 76 52 28 58 68 51
16 17 11 7 41 52 17 22 22 38 42 19 65 73 87 80 90 31 12 22 24 29 30 27 24 20 19 16 15 14 15 17 20 34 68 70 54 66 71 81 90 88 83 62 86 71 82
17 15 10 10 48 43 15 19 31 42 36 15 36 65 51 54 21 12 22 22 18 19 19 19 16 13 16 16 16 12 11 12 15 55 27 21 38 50 50 55 94 99 84 71 50 50 69
17 11 10 21 49 18 13 19 38 40 24 5 38 22 24 17 10 17 16 15 14 15 18 20 25 19 18 18 20 22 22 25 27 22 22 48 42 30 40 70 77 78 86 76 64 52 30
15 12 9 32 41 14 10 33 41 36 13 6 18 18 15 13 14 12 13 18 23 25 26 17 12 12 13 14 14 16 18 21 21 22 24 33 32 24 30 29 27 30 61 74 58 29 34
15 15 13 50 34 13 14 41 43 28 9 7 13 12 11 10 10 17 21 20 15 12 12 11 11 11 11 13 15 20 21 20 22 21 18 25 20 18 20 21 17 15 17 19 18 19 21
18 12 14 61 40 9 22 42 41 16 8 9 11 9 8 11 18 18 14 10 9 13 9 10 10 10 10 11 10 10 15 16 17 15 22 26 26 26 25 24 25 24 24 24 23 23 23
21 13 21 64 44 8 26 42 30 12 7 9 8 8 11 17 15 11 9 8 14 22 10 10 10 10 10 10 9 6 7 7 8 7 9 12 12 12 14 13 12 13 15 16 16 16 18
22 11 60 67 28 9 33 41 17 7 8 7 7 10 16 13 11 8 8 24 36 10 10 11 12 13 12 12 8 6 5 7 9 11 12 10 12 14 15 16 18 19 22 23 23 26 36
18 19 76 53 16 11 38 36 13 6 7 6 8 16 16 11 8 7 11 21 15 11 13 12 10 9 7 5 5 5 6 11 12 13 18 19 20 16 18 23 28 28 26 24 24 30 33
18 41 92 50 10 17 35 22 8 6 8 6 12 18 12 10 5 7 9 10 12 11 10 9 6 4 6 6 6 7 11 12 14 21 19 22 22 26 28 27 22 16 15 16 18 18 19
26 92 100 35 11 28 31 13 5 6 8 8 15 17 10 8 5 8 9 10 12 12 9 6 4 14 24 15 12 12 13 18 22 17 20 24 27 31 26 20 17 16 16 17 18 18 19
42 99 80 21 12 33 26 9 4 7 9 12 17 14 9 6 8 9 9 10 10 9 7 5 5 25 30 19 17 18 17 23 19 21 28 30 27 28 22 20 15 16 15 15 14 16 20
80 100 43 21 21 35 20 8 3 7 10 13 17 12 8 7 9 10 9 9 10 7 6 5 6 28 18 16 19 18 19 19 22 28 30 27 27 26 25 24 19 16 14 13 14 14 15
93 97 50 17 38 34 14 6 3 7 10 13 15 10 8 8 11 11 8 8 7 6 6 5 5 26 22 18 21 19 21 22 28 30 25 26 26 24 25 23 19 15 15 16 17 16 16
100 81 28 31 49 27 9 5 4 7 10 12 13 10 11 10 9 8 7 7 6 6 5 4 4 19 21 15 19 19 20 26 27 30 25 26 23 20 19 18 17 18 19 19 18 18 17
99 42 29 54 49 16 8 4 4 7 9 10 12 11 10 11 10 8 6 6 6 6 5 5 4 8 22 17 14 20 19 28 29 32 26 23 20 18 20 20 21 21 21 21 20 19 18
70 32 56 64 39 9 8 4 4 6 8 9 9 10 10 10 9 7 6 6 6 6 5 5 4 4 19 28 20 22 24 32 31 34 28 18 18 18 19 20 22 21 22 22 20 18 18
38 66 75 66 25 10 9 5 4 5 7 8 9 8 9 10 9 8 8 7 6 5 5 4 4 4 18 28 27 18 18 23 27 24 21 17 16 15 16 20 20 21 22 23 21 19 19
56 89 89 93 24 12 10 7 4 5 6 6 6 8 9 11 11 10 9 7 6 5 5 4 4 5 10 20 27 29 21 17 23 26 23 21 19 17 19 21 21 20 21 23 21 20 21
89 98 99 89 28 17 12 9 5 6 6 6 6 7 9 11 12 11 9 8 7 6 5 5 4 5 5 12 21 26 30 22 17 18 23 28 25 25 23 22 20 19 21 22 21 22 26
100 100 100 92 59 22 17 12 8 5 6 7 7 7 8 9 10 10 9 8 8 7 5 4 4 4 5 8 15 24 32 29 20 16 19 21 22 22 22 21 19 20 22 22 20 23 43
98 100 99 88 72 60 30 16 23 9 5 6 6 6 6 6 6 7 8 8 8 6 5 4 5 5 6 9 13 18 30 29 22 17 18 21 21 22 23 22 20 21 22 22 23 27 35
77 95 99 99 80 69 58 47 35 22 10 7 6 6 5 5 6 5 7 8 6 5 4 4 4 5 6 11 17 22 28 27 29 25 24 21 24 23 23 22 22 22 23 23 23 25 45

GFSGBSN_500_rhum_015.txt.gz
RH
12 13 13 12 11 10 10 11 8 34 54 22 37 36 36 42 45 42 37 38 57 68 70 60 62 40 31 35 55 52 41 29 34 75 20 26 80 93 98 100 95 86 85 91 73 74 82
13 13 13 13 13 11 11 10 8 40 42 23 40 35 39 46 54 47 46 40 45 55 69 69 62 37 40 54 57 39 28 30 69 25 26 69 93 99 96 95 93 84 63 63 59 62 63
13 13 13 14 15 11 11 8 10 39 22 30 35 37 54 53 57 49 48 40 50 58 62 68 65 75 69 51 46 30 26 41 62 30 70 65 90 93 94 93 78 72 53 23 51 59 39
14 13 13 14 16 13 12 9 21 30 18 34 36 50 60 58 49 40 45 47 63 59 70 73 74 74 44 30 32 27 25 55 52 70 100 100 100 99 96 93 72 68 10 66 42 16 11
17 12 12 14 17 16 12 9 26 24 24 27 40 42 44 62 55 44 69 68 69 78 85 74 34 13 25 36 33 26 38 45 58 71 97 100 98 98 87 73 56 57 49 39 33 30 17
22 13 13 16 18 16 14 8 33 23 25 28 42 40 57 53 61 79 80 82 84 32 20 23 28 32 52 49 31 42 34 33 70 85 62 66 63 80 71 43 28 20 74 28 37 42 25
25 20 18 23 23 18 13 9 45 19 23 37 44 63 64 46 86 78 90 74 16 28 31 36 39 32 21 18 20 26 22 29 76 90 31 54 66 59 31 30 25 18 53 39 48 30 40
25 27 25 26 25 17 10 14 40 19 30 36 20 63 68 84 91 74 24 19 27 28 30 30 27 23 20 18 17 17 21 32 47 52 34 41 34 22 39 77 83 79 48 42 41 49 37
23 26 27 26 22 15 10 28 22 20 37 34 13 63 40 67 49 14 23 23 24 24 23 18 15 14 13 12 11 13 15 21 36 48 29 20 47 73 92 92 76 77 74 79 74 60 52
28 26 24 20 17 13 12 28 16 26 39 36 11 42 27 37 13 20 19 19 15 15 16 22 26 26 27 27 24 17 12 10 18 26 33 29 39 50 49 32 36 59 74 76 79 72 67
29 25 21 18 15 12 17 20 15 32 38 21 11 20 19 11 19 15 14 15 20 23 25 20 16 14 15 16 20 25 23 23 25 24 27 41 42 36 26 28 28 29 31 44 57 76 72
28 22 19 17 15 12 27 18 15 39 37 14 10 15 12 15 12 14 19 24 26 23 17 13 13 14 14 14 16 17 17 20 27 29 29 29 21 22 20 19 18 19 23 24 24 27 30
26 19 18 17 15 13 34 21 20 41 29 8 12 12 12 10 14 20 22 21 17 15 11 11 10 10 11 10 13 16 20 21 25 34 32 25 24 23 23 26 26 28 26 23 21 20 21
22 18 18 17 14 19 40 17 24 42 19 7 12 12 11 11 20 20 18 13 13 10 10 10 10 10 11 10 11 10 9 11 10 11 13 12 13 13 14 15 17 18 20 21 21 21 20
20 19 19 16 16 23 47 11 28 41 12 8 10 10 11 18 18 15 12 10 22 11 11 11 12 13 13 12 12 10 7 7 8 11 12 14 13 17 20 21 21 26 27 26 20 17 16
21 22 22 16 14 42 51 10 32 36 8 9 10 11 15 17 14 11 9 22 20 13 12 13 13 10 8 7 7 7 6 7 10 13 13 15 20 21 23 28 24 18 15 17 18 18 18
24 25 27 17 35 64 31 11 40 25 7 9 11 14 16 14 11 8 16 32 15 15 11 8 6 5 7 8 6 6 6 12 14 20 22 19 25 30 30 20 15 16 17 18 17 16 18
31 29 29 38 69 60 17 16 39 15 7 8 12 16 16 12 8 8 14 13 12 12 10 8 6 11 28 23 13 10 12 14 22 17 23 27 29 31 28 21 17 18 15 13 13 13 14
38 43 29 56 79 65 15 26 33 9 7 8 13 18 16 11 6 8 9 10 11 15 9 7 5 21 29 23 19 16 15 22 20 20 28 30 30 30 27 22 21 20 15 14 15 16 16
58 42 56 88 95 54 17 32 22 7 8 9 15 18 15 10 6 7 8 10 10 10 8 6 5 22 23 20 19 18 20 25 18 24 30 28 30 32 26 25 24 19 17 17 16 17 17
60 55 54 99 90 32 27 34 14 7 8 8 13 17 14 8 7 8 8 9 10 10 7 5 4 9 25 22 21 21 24 24 24 29 32 28 27 26 26 25 23 20 18 18 19 19 19
71 41 89 100 56 29 38 30 11 6 8 9 13 17 14 11 11 8 8 9 8 8 6 5 5 5 28 26 25 21 26 25 29 32 33 28 28 26 22 20 20 21 21 21 21 21 21
57 49 99 75 34 37 41 23 9 7 8 10 14 16 15 11 9 8 9 9 8 7 6 5 5 5 9 32 25 22 23 24 29 31 34 31 26 23 19 19 19 19 21 21 22 21 22
48 72 100 77 48 39 41 15 8 7 8 11 14 16 15 12 10 10 10 9 8 8 7 5 5 5 5 13 26 29 18 16 20 29 30 34 34 27 19 18 17 18 20 22 22 21 21
63 100 97 67 53 48 30 11 8 7 7 10 13 15 15 14 13 12 10 9 7 6 7 6 5 5 5 5 12 24 32 27 19 19 27 30 31 30 25 19 17 17 21 23 23 22 22
89 100 86 82 71 50 16 11 8 7 7 9 10 12 13 13 14 12 10 9 9 8 8 7 6 5 5 4 4 6 12 22 29 26 20 22 28 31 28 26 21 21 23 24 24 21 22
100 100 96 78 87 39 14 12 8 7 7 8 9 10 10 10 10 10 10 10 8 8 8 8 7 6 5 4 5 5 6 8 14 22 30 26 23 25 29 25 19 24 24 25 23 23 23
100 100 98 86 98 31 16 13 10 8 8 8 9 8 9 10 10 9 10 11 10 10 9 8 8 7 6 5 5 5 6 7 9 12 24 31 27 24 24 24 18 23 22 24 24 24 25
100 100 98 93 99 94 26 15 12 9 8 8 8 8 7 7 8 8 9 11 11 10 9 9 8 8 6 5 4 4 5 6 10 13 26 34 50 44 37 30 27 26 24 23 23 24 27

GFSGBSN_500_rhum_018.txt.gz
RH
21 14 12 13 13 13 13 13 14 10 9 8 20 36 32 38 36 38 46 41 42 45 69 69 62 55 48 34 44 52 49 55 39 41 57 48 27 90 100 100 100 95 91 94 90 75 82
27 21 14 13 14 13 13 14 14 12 11 10 24 26 29 39 36 45 53 46 44 44 57 65 70 67 59 46 59 55 52 41 36 53 27 52 89 100 99 92 90 95 94 91 92 75 66
26 25 21 14 13 13 13 14 16 15 13 14 26 19 34 37 56 56 56 52 51 46 49 57 69 75 69 65 51 57 36 28 44 56 97 90 92 82 84 89 92 95 61 25 47 72 70
36 33 27 20 15 14 14 14 15 17 14 14 24 25 31 44 46 63 57 55 48 46 57 61 65 77 83 60 51 50 33 46 56 39 93 100 100 94 93 97 96 90 24 29 40 55 42
48 45 29 25 21 17 13 13 13 17 14 16 22 27 36 42 44 55 38 41 50 66 57 68 81 91 80 38 39 37 32 67 95 100 100 98 98 96 95 87 76 90 59 13 28 13 11
38 44 35 25 24 21 14 14 15 18 13 20 23 27 41 50 52 57 53 69 73 79 87 79 38 25 20 33 38 36 39 78 97 94 79 83 92 96 89 82 66 61 31 17 14 15 16
31 32 36 37 23 23 17 13 19 20 10 24 23 37 47 54 55 59 78 81 82 69 23 27 28 28 56 65 46 37 41 79 99 96 100 97 98 97 97 68 51 44 30 51 27 16 16
7 25 29 34 31 23 20 15 19 19 13 25 25 39 37 55 58 79 80 93 41 26 25 35 37 34 36 41 34 38 59 96 97 98 98 94 92 82 73 64 36 39 48 47 38 23 24
3 6 21 28 30 23 24 17 18 16 16 23 32 38 25 46 62 52 78 32 26 26 31 28 24 21 18 18 19 29 43 86 94 81 50 40 60 70 52 45 30 48 44 63 66 58 50
1 2 9 19 27 26 24 23 22 14 18 22 37 34 22 33 55 12 22 28 29 29 24 19 17 17 16 16 17 19 23 50 90 80 59 70 66 46 38 64 80 80 77 52 53 76 75
1 1 3 12 18 25 21 21 20 12 19 22 41 24 30 26 14 19 22 20 21 19 18 19 22 22 15 12 12 12 17 26 37 30 39 35 44 53 85 74 62 57 53 57 62 67 72
1 3 3 7 17 22 22 19 16 15 19 25 40 16 20 13 15 16 16 15 16 22 26 26 26 26 27 25 20 17 13 14 20 32 30 39 46 48 44 41 25 28 30 30 29 24 18
10 8 4 13 21 21 20 18 13 20 21 32 32 13 11 13 12 13 15 19 22 24 19 16 15 14 15 18 20 22 22 23 25 27 32 32 32 33 32 24 19 18 19 21 24 26 25
73 14 9 22 24 21 19 17 14 26 21 39 17 13 10 10 11 16 22 25 25 23 14 14 14 13 13 14 15 17 19 21 24 28 30 30 27 25 19 21 23 21 18 18 17 19 21
85 17 22 26 23 19 17 16 17 29 24 40 9 10 10 10 12 20 23 22 19 19 12 11 10 11 11 10 11 9 9 11 13 14 14 19 20 15 14 15 17 19 22 26 27 24 19
100 39 40 31 20 17 16 16 24 25 30 36 11 10 9 11 16 19 20 16 13 13 10 11 12 12 13 14 13 13 12 10 9 9 10 12 13 15 22 24 24 28 26 18 16 17 18
84 68 86 42 17 23 20 30 33 18 38 24 12 8 9 12 17 18 14 12 23 12 12 13 14 13 11 11 12 10 10 9 8 11 14 14 18 26 26 29 30 21 16 19 18 16 15
66 100 97 28 35 38 39 48 34 14 41 15 12 7 9 13 17 13 11 11 22 15 15 11 8 5 10 9 8 7 7 8 13 16 18 26 26 26 33 32 18 16 18 17 14 14 15
95 100 82 30 59 44 52 55 24 17 41 12 10 8 10 15 14 10 9 19 22 17 13 9 8 6 27 32 20 10 9 11 14 19 25 25 27 31 32 25 20 18 20 17 16 15 16
100 100 50 47 63 60 58 56 14 30 34 10 12 9 12 15 12 10 9 26 17 13 14 10 8 6 32 33 22 16 14 15 19 24 20 30 31 33 33 27 26 25 23 19 17 17 17
98 97 42 58 52 63 54 31 20 37 26 11 10 9 12 14 10 8 10 15 11 12 11 10 7 5 29 27 24 21 18 17 26 22 25 31 31 30 30 28 27 26 25 23 20 19 19
100 49 54 58 60 57 57 27 34 35 20 10 9 8 13 16 12 8 8 9 10 11 10 8 6 5 13 32 23 20 19 22 22 22 27 32 32 29 30 27 25 22 21 20 21 21 21
76 43 61 66 66 70 68 26 42 31 15 9 9 11 14 15 13 8 7 8 9 11 10 8 6 5 6 25 23 21 22 23 22 24 28 30 31 29 25 27 24 19 19 19 19 19 20
41 44 84 96 98 97 53 26 49 23 12 10 10 14 15 16 14 10 8 8 10 11 10 9 6 5 5 6 19 26 18 16 18 19 22 26 30 31 27 25 21 17 17 18 19 20 21
40 63 77 98 100 97 39 43 50 16 11 10 10 14 17 18 17 13 9 9 11 11 11 9 9 6 5 5 5 11 22 25 22 16 15 18 22 24 24 21 17 19 21 20 20 25 27
46 77 94 100 100 48 64 58 34 14 11 10 10 14 18 19 17 15 12 11 11 11 10 9 9 8 6 6 5 4 5 8 15 21 28 27 22 20 21 19 14 18 24 27 27 20 26
56 84 90 100 72 73 70 52 20 11 10 9 10 11 15 18 19 16 13 14 13 12 12 12 10 9 8 7 6 5 4 5 5 7 12 22 31 32 31 26 17 23 24 27 25 24 22
48 72 100 100 85 95 65 32 13 10 10 12 12 12 14 17 18 16 15 15 14 13 12 12 11 9 8 8 7 7 6 5 5 5 8 11 15 22 29 31 25 39 38 38 33 30 27
52 100 100 98 72 88 64 16 12 10 13 23 14 13 13 15 16 16 15 15 13 12 11 10 10 9 9 8 8 8 7 6 6 5 7 8 18 18 21 25 31 35 37 40 41 38 34

GFSGBSN_500_rhum_021.txt.gz
RH
38 42 36 29 22 19 13 12 13 14 13 14 16 14 10 19 24 29 38 37 45 43 40 53 65 66 58 45 36 41 41 45 62 60 34 37 58 78 88 95 99 87 98 94 98 93 86
39 35 38 33 29 25 18 13 13 14 13 14 16 16 11 21 22 30 36 52 50 50 43 46 65 71 70 55 35 47 45 45 54 34 33 74 56 100 100 89 86 97 97 97 95 94 75
43 38 39 41 36 27 21 15 14 14 14 14 14 17 13 20 24 31 39 50 58 55 51 47 53 62 71 58 43 55 54 49 35 47 65 66 79 85 84 99 99 98 94 90 95 82 69
44 45 44 47 42 25 22 21 18 16 15 14 15 17 15 22 26 36 40 53 61 60 53 44 56 65 73 67 49 57 46 42 59 77 83 86 98 92 94 100 98 84 42 48 44 63 66
40 39 36 42 47 34 32 31 24 20 18 14 18 18 17 24 29 38 44 55 44 50 48 55 72 90 84 66 56 52 82 53 75 98 100 95 98 97 94 98 94 58 61 55 60 61 44
28 29 33 36 36 48 42 32 24 23 21 15 19 17 20 26 36 38 53 55 41 56 66 63 91 90 72 79 45 81 42 80 94 94 99 100 98 87 96 85 84 81 60 40 32 28 14
15 14 20 34 37 37 44 34 25 23 21 16 18 16 22 29 34 41 56 65 71 70 78 85 63 42 34 38 43 42 38 71 91 85 97 96 95 96 100 94 70 63 62 46 16 16 18
18 9 4 13 33 36 39 35 27 23 22 17 18 15 23 34 28 44 60 78 79 77 68 37 29 27 26 36 38 43 47 78 98 98 99 100 98 94 91 78 64 41 53 47 34 24 23
3 4 2 1 6 25 34 30 27 22 23 18 18 16 25 34 27 55 65 67 72 36 27 28 35 39 51 60 48 43 72 100 80 78 100 87 89 85 80 75 67 38 83 94 75 65 41
2 2 2 2 1 4 26 28 26 24 24 20 19 17 28 32 31 59 21 57 37 25 34 31 24 20 19 22 29 33 61 95 84 100 70 64 69 78 94 80 76 46 69 84 83 86 88
2 2 1 2 2 1 4 25 26 25 24 21 17 18 28 25 37 30 17 25 30 34 29 23 22 20 18 18 20 28 51 90 99 84 77 71 57 91 77 72 75 80 87 63 46 48 38
1 1 2 1 1 1 2 10 23 24 23 19 14 20 31 26 27 16 23 28 28 22 19 20 19 16 15 15 16 18 29 39 88 88 82 81 52 56 58 53 62 76 52 60 52 36 20
1 1 1 1 1 1 1 5 18 25 22 17 15 21 33 24 16 19 20 20 17 17 22 26 26 25 20 14 12 13 14 16 29 43 36 34 42 56 58 66 53 42 29 23 19 16 19
1 1 1 1 1 1 2 6 14 24 20 16 18 24 28 17 14 17 14 14 16 26 25 22 20 19 24 24 24 22 20 21 23 28 38 39 45 41 38 42 40 24 18 19 21 18 18
1 1 1 1 2 2 3 4 18 23 19 16 20 29 20 10 14 13 12 13 22 24 19 16 15 14 14 15 16 16 19 21 23 26 30 30 27 28 28 28 23 21 17 16 19 24 18
1 1 1 1 13 2 6 11 20 19 18 18 21 33 15 10 12 11 15 21 25 21 14 14 13 12 13 12 11 11 11 13 16 18 17 16 14 15 15 14 13 15 21 25 21 16 17
1 1 1 22 6 8 16 23 21 18 21 20 26 29 13 10 11 15 19 23 21 17 13 12 11 12 12 13 14 14 14 12 11 10 10 11 12 14 13 17 22 25 30 19 18 17 15
1 13 60 100 13 28 34 33 19 19 22 21 30 25 11 11 11 16 20 18 14 13 11 12 13 14 12 10 10 13 13 11 11 10 10 13 15 16 21 25 30 29 19 18 18 15 14
14 96 100 65 31 59 94 40 26 28 23 23 36 15 10 11 12 16 17 13 12 17 11 14 11 8 7 19 14 9 7 7 9 12 14 17 22 26 24 27 27 18 18 18 17 16 16
79 100 100 73 68 96 95 45 51 49 17 30 36 12 9 10 15 18 14 11 16 18 15 13 10 7 8 32 33 22 12 8 9 15 16 23 27 27 30 31 26 20 19 19 20 19 19
100 100 100 65 94 100 65 54 70 37 22 36 29 11 8 9 14 16 13 10 19 18 14 14 10 8 8 32 28 26 16 13 13 15 24 22 27 30 30 30 26 21 22 24 24 24 22
100 100 71 95 100 97 58 77 58 32 31 38 18 11 12 11 18 16 10 10 24 23 14 12 9 8 8 30 30 25 21 19 17 18 22 20 27 30 29 28 27 25 24 24 25 23 21
100 98 86 100 100 68 85 74 42 31 36 31 15 12 16 14 17 14 9 9 24 17 12 11 10 8 6 10 31 24 23 20 18 20 20 20 24 28 26 25 23 18 22 24 23 21 20
100 87 100 98 71 70 72 54 40 31 37 25 15 14 15 16 17 15 10 10 13 11 12 11 10 9 6 6 8 28 20 17 18 18 18 20 23 22 22 26 18 18 22 25 26 26 25
100 100 99 63 57 64 64 49 36 51 38 24 17 16 15 20 19 15 11 9 9 10 11 12 12 10 7 6 6 5 11 24 22 16 14 14 15 16 15 16 13 16 18 20 21 21 27
100 87 70 60 58 64 50 47 52 59 35 20 18 15 15 20 18 19 14 9 8 9 11 12 12 11 10 9 6 6 5 5 6 9 19 23 24 22 20 18 13 16 22 23 23 19 27
83 60 60 59 60 64 86 58 69 62 40 19 17 15 15 19 22 18 14 12 10 10 11 13 13 11 10 9 9 8 7 7 6 6 6 8 8 8 11 11 9 23 27 28 27 29 28
78 74 53 62 72 85 92 71 75 63 26 18 16 25 20 19 24 20 17 13 14 14 14 14 14 12 11 10 9 9 8 8 8 8 8 8 8 10 12 11 12 15 15 16 17 22 26
99 59 59 84 94 100 92 97 71 45 21 19 18 37 23 20 23 23 20 18 17 15 15 15 14 12 10 10 10 10 8 9 9 9 10 9 10 9 9 10 13 13 16 20 24 29 39

GFSGBSN_500_rhum_024.txt.gz
RH
45 45 40 41 42 39 37 29 21 21 18 14 14 14 14 14 15 15 18 25 31 42 50 45 45 58 68 64 49 34 35 42 55 71 67 64 63 56 42 54 59 56 91 79 92 91 96
46 47 45 43 44 39 34 31 26 24 24 15 16 15 15 14 17 16 18 27 38 41 54 52 41 60 72 69 52 34 39 40 49 65 43 34 42 36 42 79 90 89 100 97 96 94 99
45 46 48 44 44 46 36 37 33 26 25 18 18 17 16 15 18 17 22 31 41 42 59 57 48 48 61 66 49 42 50 49 47 50 30 28 55 78 74 92 99 92 96 99 96 99 85
51 46 46 45 44 42 42 42 41 26 25 22 22 20 18 16 18 18 25 37 44 51 65 63 54 49 57 64 52 45 55 42 62 46 47 78 82 99 100 100 98 95 92 94 86 93 47
52 50 48 49 46 44 42 41 45 30 27 31 28 22 21 17 17 20 30 38 52 48 48 56 53 53 93 72 58 52 52 78 48 77 78 67 96 99 99 99 98 93 82 81 62 70 46
43 42 42 40 38 39 40 35 45 41 33 36 24 23 21 18 18 23 30 41 51 55 42 54 56 68 84 70 63 51 53 64 89 85 90 86 98 100 99 88 96 84 72 62 57 66 35
36 32 33 31 32 32 35 36 35 46 42 40 25 23 20 18 19 27 29 35 38 52 66 69 66 75 79 72 74 52 81 90 99 95 97 92 98 98 98 96 95 92 93 70 42 38 25
31 31 32 27 24 26 29 35 35 37 41 35 27 23 19 18 20 30 32 42 34 53 69 79 86 79 54 42 52 71 57 70 96 99 83 98 98 96 97 93 80 69 79 98 73 51 33
24 25 26 28 25 18 13 20 38 34 37 35 26 23 19 18 22 30 32 40 38 58 72 62 45 30 28 27 41 47 70 86 95 89 98 96 96 100 100 94 86 75 66 92 96 51 52
9 12 15 17 16 11 10 6 24 38 39 38 26 24 21 18 25 29 31 35 26 66 44 24 28 30 36 56 50 41 70 100 91 94 99 98 100 98 91 96 81 77 68 82 95 89 100
3 3 4 5 5 4 6 2 8 28 35 33 29 24 22 18 29 29 31 21 25 33 26 30 34 32 30 51 47 40 43 98 100 97 79 93 91 100 100 92 85 71 54 54 40 84 80
2 2 2 2 2 2 2 2 1 11 29 31 30 25 20 19 31 28 29 16 20 24 32 24 21 19 18 20 24 33 38 63 91 96 95 99 93 78 66 76 75 68 66 96 88 82 66
2 2 2 2 2 2 2 2 2 2 17 28 28 24 20 22 29 30 22 16 22 27 24 19 19 17 16 16 17 22 32 50 80 93 80 84 67 77 61 64 66 54 83 56 37 34 30
1 2 2 2 2 2 2 2 1 1 7 23 26 23 18 24 30 28 16 20 25 20 16 15 16 14 13 13 15 16 19 26 32 55 67 60 66 45 69 66 58 67 76 49 29 19 22
1 2 1 2 2 2 2 2 1 2 4 19 26 22 18 24 31 23 15 18 18 15 19 22 25 27 28 25 22 19 16 17 20 24 31 39 38 44 46 39 40 35 33 25 25 18 18
1 1 1 1 1 1 2 2 1 2 3 17 26 22 19 26 28 16 13 14 13 21 24 20 16 15 15 15 17 18 21 23 25 26 28 31 30 30 28 28 24 25 23 20 16 20 18
1 1 1 1 1 1 1 1 1 1 4 20 25 21 20 29 24 11 10 12 14 22 18 16 14 13 12 12 12 13 13 15 17 18 20 18 18 16 14 15 14 14 15 21 25 18 17
2 1 1 1 1 1 1 1 1 1 6 17 23 20 22 28 22 9 10 12 18 21 16 14 12 12 11 12 13 14 13 13 12 11 9 9 9 10 13 13 14 19 23 29 18 19 16
16 4 1 1 1 1 1 1 1 1 3 16 20 20 24 26 19 8 11 16 22 19 14 12 12 13 14 13 11 10 10 11 10 11 10 9 10 12 13 14 22 25 29 20 18 19 14
27 8 2 1 1 1 2 31 1 3 17 30 25 23 27 25 15 10 15 20 20 15 13 12 14 12 8 7 11 19 11 8 7 7 8 13 15 20 24 22 25 29 20 16 17 18 17
40 5 2 4 12 60 77 38 27 42 46 27 26 22 25 22 12 11 21 22 16 12 13 14 14 11 7 10 28 32 29 18 9 8 12 14 19 25 26 26 29 29 20 17 17 18 20
30 4 34 100 100 96 98 76 99 100 64 24 26 22 29 22 11 15 21 20 12 14 16 16 15 10 7 10 30 27 25 21 14 13 15 19 23 24 27 28 27 28 25 22 22 24 24
13 15 100 100 100 94 100 84 100 97 43 32 24 28 31 20 11 17 18 17 11 19 18 15 12 10 7 8 27 32 24 21 19 17 16 21 20 22 25 27 24 20 24 26 25 25 26
5 100 100 97 100 82 59 73 99 84 50 44 39 34 25 18 13 18 22 16 11 18 22 14 13 10 8 6 8 30 28 23 20 18 18 18 18 18 22 24 19 23 26 28 25 27 28
87 100 100 84 89 81 55 100 95 64 65 40 40 35 23 21 16 21 23 16 11 19 32 14 13 11 10 8 6 7 12 29 24 19 18 19 19 17 15 17 14 17 16 18 19 21 23
96 100 100 100 100 100 100 95 73 70 54 40 41 35 24 22 15 23 25 15 11 20 20 12 12 12 11 11 10 7 6 6 7 12 19 22 23 21 19 13 8 12 13 14 12 12 15
100 100 100 100 100 100 96 82 80 60 43 49 45 35 27 21 22 24 22 15 10 14 14 13 12 14 13 11 10 10 9 8 8 8 7 7 7 6 7 7 6 8 8 8 10 12 9
100 100 100 99 100 93 83 69 51 39 49 53 39 35 23 20 23 25 25 18 11 11 12 12 14 14 14 13 11 10 9 10 9 9 10 9 9 9 9 9 10 10 8 8 8 7 9
100 100 99 97 84 76 59 49 43 49 57 65 34 35 28 20 20 26 27 24 17 16 15 14 14 15 14 12 12 12 10 10 11 11 11 10 10 9 9 8 9 7 6 7 7 9 13